ORBCOMM FM 13

Satellite information

Favourite Embed

Satellite Type and Status

PAYLOADIN ORBIT

Key statistics

Satellite ORBCOMM FM 13 at a glance.

Uptime

9834

Days in orbit

Revolutions

≈ 14.4

Per day

Orbit

LEO

Low Earth Orbit

Inclination

45.0

Latest

Satellite identification and parameters

Extended collection of information and parameters for ORBCOMM FM 13.

Object identification

Identified? True

Debris? False

Object name: ORBCOMM FM 13

International designator: 1998-046H

Object number (NORAD): 25420

Object ID (CCSDS): 25420

Country: ORBITAL TELECOMMUNICATIONS SATELLITE (GLOBALSTAR) (ORB)

Current information (Y/N): Y

RCS size: LARGE

Orbital parameters

Period: 100.16 minutes

Inclination: 44.9974 deg

SMA: 7144.246 km

Apoapsis: 770.725 km

Periapsis: 761.498 km

RAAN: 103.6792 deg

Eccentricy: 0.0006458

Argument of periapsis: 357.8974 deg

Mean anomaly: 2.1846 deg

Mean motion: 14.376995 rev/day

Mean motion (dot): 0.00000709 rev/day2

B* drag term: 0.00028058 1/REarth

Two-line elements (TLE)

Creation date: July 4, 2025, 6:39 p.m.

Reference frame: TEME

Reference center: EARTH

Epoch: July 4, 2025, 4:15 a.m. UTC

TLE line 0: 0 ORBCOMM FM 13

TLE line 1: 1 25420U 98046H 25185.17766365 .00000709 00000-0 28058-3 0 9994

TLE line 2: 2 25420 44.9974 103.6792 0006458 357.8974 2.1846 14.37699500405684

Live tracking on map

Real-time ground track for satellite ORBCOMM FM 13.

In-orbit conjunctions

There are no conjunctions computed for ORBCOMM FM 13, at the moment. Check back to stay up to date, as we update our databases every day.

Go to all conjunctions

Associated space launch

ORBCOMM FM 13 was lifted into orbit during the mission ‘Pegasus XL HAPS | Orbcomm-B1 - B8’, on board a Pegasus XL HAPS space rocket.

The launch took place on Aug. 2, 1998, 4:24 p.m. from Wallops Flight Facility.

For more information about the launch, click the button.

Launch to space Pegasus XL HAPS | Orbcomm-B1 - B8
Pegasus XL HAPS | Orbcomm-B1 - B8

Agency: N/A

Status: Launch Successful

Launch date: Aug. 2, 1998, 4:24 p.m. UTC

Rocket: Pegasus XL HAPS

Launch pad: Wallops Flight Facility

Location: Air launch to orbit

...

Latest news about this satellite

There are no fresh news available about this satellite. Check back as we update our databases every day.


Newsletter sign-up

Weekly statistics, charts and insights to help you stay on top of the space industry.